KD3XC Weather Reports


time (UTC)temp
C
wind
direction
speed
KPH
gust
KPH
rain 1hr
cm
rain 24hr
cm
rain mn
cm
humidity
%
barometer
mb
20260504050008 8 199 0.0 3.2 0.00 0.00 0.00 43 1015.1
20260504044600 8 199 0.0 3.2 0.00 0.00 0.00 43 1015.1
20260504043100 7 199 1.6 3.2 0.00 0.00 0.00 44 1015.1
20260504041555 7 199 1.6 3.2 0.00 0.00 0.00 44 1015.1
20260504040053 7 199 0.0 3.2 0.00 0.00 0.00 45 1015.1
20260504034553 7 199 1.6 3.2 0.00 0.00 0.00 45 1015.2
20260504033051 7 199 1.6 3.2 0.00 0.00 0.00 45 1015.2
20260504031552 7 199 1.6 3.2 0.00 0.00 0.00 44 1015.3
20260504030051 7 199 1.6 4.8 0.00 0.00 0.00 43 1015.5
20260504024553 7 199 1.6 4.8 0.00 0.00 0.00 44 1015.4
20260504023049 7 107 0.0 3.2 0.00 0.00 0.00 48 1015.5
20260504021549 7 107 0.0 0.0 0.00 0.00 0.00 44 1015.4
20260504020126 8 107 0.0 1.6 0.00 0.00 0.00 45 1015.6
20260504014600 8 107 0.0 1.6 0.00 0.00 0.00 44 1015.4
20260504013058 9 107 0.0 0.0 0.00 0.00 0.00 46 1015.5
20260504011548 10 107 0.0 0.0 0.00 0.00 0.00 37 1015.4
20260504010047 10 107 0.0 3.2 0.00 0.00 0.00 35 1015.3
20260504004617 10 107 0.0 3.2 0.00 0.00 0.00 36 1015.2
20260504003050 11 107 0.0 0.0 0.00 0.00 0.00 34 1015.2
20260504001616 11 107 0.0 1.6 0.00 0.00 0.00 38 1015.2
20260504000045 12 108 0.0 0.0 0.00 0.00 0.00 32 1015.2
20260503234543 12 107 0.0 1.6 0.00 0.00 0.00 30 1015.2
20260503233043 12 150 0.0 6.4 0.00 0.00 0.00 29 1015.3
20260503231541 13 201 0.0 12.9 0.00 0.00 0.00 28 1015.3
20260503230058 13 307 0.0 8.0 0.00 0.00 0.00 28 1015.3
20260503224539 13 88 1.6 12.9 0.00 0.00 0.00 26 1015.4
20260503223039 13 207 0.0 8.0 0.00 0.00 0.00 26 1015.5
20260503221537 13 256 1.6 9.7 0.00 0.00 0.00 29 1015.6
20260503220044 13 10 0.0 4.8 0.00 0.00 0.00 27 1015.5
20260503214536 14 257 3.2 14.5 0.00 0.00 0.00 25 1015.6
20260503213036 15 218 1.6 11.3 0.00 0.00 0.00 24 1015.5
20260503211535 15 186 1.6 9.7 0.00 0.00 0.00 24 1015.6
20260503210034 15 203 0.0 9.7 0.00 0.00 0.00 25 1015.6
20260503204532 15 93 1.6 9.7 0.00 0.00 0.00 24 1015.8
20260503203045 15 19 6.4 14.5 0.00 0.00 0.00 26 1016.0
20260503201532 16 247 1.6 14.5 0.00 0.00 0.00 24 1016.2
20260503200027 15 251 4.8 22.5 0.00 0.00 0.00 24 1016.4
20260503194536 14 1 8.0 14.5 0.00 0.00 0.00 25 1016.6
20260503193024 15 9 8.0 16.1 0.00 0.00 0.00 23 1016.8
20260503191523 14 5 6.4 20.9 0.00 0.00 0.00 25 1017.0
20260503190034 14 191 4.8 22.5 0.00 0.00 0.00 26 1017.3
20260503184524 15 286 4.8 25.7 0.00 0.00 0.00 23 1017.3
20260503183018 13 92 1.6 25.7 0.00 0.00 0.00 31 1017.4
20260503181518 14 357 4.8 25.7 0.00 0.00 0.00 23 1017.6
20260503180016 14 300 3.2 9.7 0.00 0.00 0.00 23 1017.7
20260503174512 13 23 4.8 12.9 0.00 0.00 0.00 25 1017.9
20260503173009 13 170 4.8 16.1 0.00 0.00 0.00 28 1018.2
20260503171505 13 62 1.6 16.1 0.00 0.00 0.00 30 1018.1
20260503081536 1 234 0.0 0.0 0.00 0.00 0.00 48 1017.6
20260503071528 1 261 0.0 3.2 0.00 0.00 0.00 51 1017.4